Weather in Nabire

Indonesia     3°21′34″S   135°29′59″E
temp.,
°C
wind,
m/s
gust,
m/s
humid.,
%
clouds,
%
prec.,
mm/h
press.,
hPa
HPBL,
m
13 april, tue
tue1300:00+26s3485100 0.1 1010207
03:00+25ssw3586100 0.1 1008225
06:00+25ssw3585100 0.0 1009274
09:00+27sw47745 0.0 1010571
12:00+31wsw69612 0.0 10061010
15:00+32wsw912573 0.0 1004747
18:00+29wsw710698 0.1 1005686
21:00+27sw47774 0.2 1008490
14 april, wed
wed1400:00+25ssw468411 0.0 1008362
03:00+24ssw4787100 0.0 1007311
06:00+24s3486100 0.0 1008204
09:00+27ssw2472100 0.0 1010406
12:00+28nw336998 0.0 1007615
15:00+30nw236183 0.0 1004543
18:00+29sw3471100 0.0 1005115
21:00+27ssw3577100 0.1 1008307
15 april, thu
thu1500:00+25s3586100 0.0 1008231
03:00+25s3486100 0.0 1007217
06:00+24s3386100 0.1 1008175
09:00+27ssw3470100 0.1 1010355
12:00+29nw3364100 0.0 1007670
15:00+29nnw236299 0.0 1004403
18:00+29wsw5770100 0.0 1006392
21:00+27ssw4675100 0.0 1008357
16 april, fri
fri1600:00+25ssw4583100 0.0 1008270
03:00+25ssw4585100 0.0 1007235
06:00+25ssw348591 0.0 1008232
09:00+27sw4574100 0.0 1009515
12:00+31w3558100 0.0 1005987
15:00+32sw6857100 0.0 1003731
18:00+29sw797090 0.0 1004669
21:00+26ssw4782100 0.5 1007434
17 april, sat
sat1700:00+25ssw4586100 0.2 1007304
03:00+25s3486100 0.4 1007243
06:00+24ssw3486100 0.0 1008254
09:00+27sw467599 0.0 1008526
12:00+31w3557100 0.0 1005952
15:00+32wsw895999 0.0 1003933
18:00+29sw71074100 0.1 1005730
21:00+27sw5877100 1.3 1007542